This is the latest recevied weather packets stored in our database for station/object N8BAP. If no packets are shown the sender has not sent any weather packets the latest 10 day(s).
| Time | Temp. | Humidity | Pressure | Rain* | Wind** | Luminosity | Snow |
|---|---|---|---|---|---|---|---|
| 1778273147 | 18.89° C | 42% | 1015.3 hPa | 0 mm | - | 114 W/m² | - |
| 1778272843 | 18.89° C | 44% | 1015.2 hPa | 0 mm | - | 81 W/m² | - |
| 1778272540 | 18.89° C | 44% | 1015.6 hPa | 0 mm | - | 74 W/m² | - |
| 1778272236 | 18.89° C | 42% | 1015.7 hPa | 0 mm | - | 87 W/m² | - |
| 1778271932 | 19.44° C | 40% | 1015.6 hPa | 0 mm | - | 124 W/m² | - |
| 1778271630 | 19.44° C | 39% | 1015.6 hPa | 0 mm | - | 103 W/m² | - |
| 1778271326 | 19.44° C | 38% | 1015.6 hPa | 0 mm | - | 117 W/m² | - |
| 1778271023 | 20.56° C | 37% | 1015.7 hPa | 0 mm | - | 184 W/m² | - |
| 1778270720 | 20° C | 39% | 1015.7 hPa | 0 mm | - | 485 W/m² | - |
| 1778270416 | 20° C | 41% | 1015.7 hPa | 0 mm | - | 307 W/m² | - |
| 1778270113 | 20.56° C | 37% | 1015.8 hPa | 0 mm | - | 307 W/m² | - |
| 1778269809 | 21.11° C | 40% | 1015.8 hPa | 0 mm | - | 364 W/m² | - |
| 1778269506 | 21.11° C | 36% | 1015.6 hPa | 0 mm | - | 649 W/m² | - |
| 1778269203 | 21.11° C | 42% | 1015.8 hPa | 0 mm | - | 678 W/m² | - |
| 1778268899 | 21.11° C | 40% | 1016.1 hPa | 0 mm | - | 704 W/m² | - |
| 1778268596 | 21.11° C | 37% | 1015.8 hPa | 0 mm | - | 524 W/m² | - |
| 1778268293 | 20.56° C | 43% | 1016.4 hPa | 0 mm | - | 783 W/m² | - |
| 1778267990 | 20.56° C | 42% | 1016.4 hPa | 0 mm | - | 755 W/m² | - |
| 1778267687 | 20.56° C | 42% | 1016.3 hPa | 0 mm | - | 727 W/m² | - |
| 1778267383 | 20.56° C | 43% | 1016.5 hPa | 0 mm | - | 744 W/m² | - |
| 1778267081 | 19.44° C | 43% | 1016.4 hPa | 0 mm | - | 459 W/m² | - |
| 1778266777 | 19.44° C | 42% | 1016.6 hPa | 0 mm | - | 628 W/m² | - |
| 1778266474 | 20° C | 42% | 1017.1 hPa | 0 mm | - | 693 W/m² | - |
| 1778266172 | 19.44° C | 44% | 1016.9 hPa | 0 mm | - | 406 W/m² | - |
| 1778265869 | 20° C | 41% | 1016.8 hPa | 0 mm | - | 345 W/m² | - |
* Rain latest hour (hover to see other rain measurements)
** Current wind speed in m/s (hover to see current wind gust speed)